EN

Hourly Weather Almisera

Today, 16 January, Saturday

Time Temperature Precipitation Wind Pressure Humidity
00:00 +4°C° 0 mm 2 mps 735 mmHg 61%
01:00 +4°C° 0 mm 2 mps 735 mmHg 60%
02:00 +3°C° 0 mm 2 mps 735 mmHg 58%
03:00 +3°C° 0 mm 2 mps 735 mmHg 57%
04:00 +3°C° 0 mm 2 mps 735 mmHg 58%
05:00 +3°C° 0 mm 2 mps 735 mmHg 58%
06:00 +2°C° 0 mm 2 mps 736 mmHg 61%
07:00 +4°C° 0 mm 2 mps 736 mmHg 58%
08:00 +5°C° 0 mm 2 mps 737 mmHg 55%
09:00 +6°C° 0 mm 2 mps 737 mmHg 52%
10:00 +8°C° 0 mm 2 mps 738 mmHg 47%
11:00 +9°C° 0 mm 2 mps 738 mmHg 43%
12:00 +12°C° 0 mm 1 mps 738 mmHg 39%
13:00 +12°C° 0 mm 1 mps 738 mmHg 39%
14:00 +13°C° 0 mm 1 mps 738 mmHg 39%
15:00 +13°C° 0 mm 1 mps 737 mmHg 39%
16:00 +10°C° 0 mm 2 mps 738 mmHg 45%
17:00 +8°C° 0 mm 3 mps 738 mmHg 51%
18:00 +7°C° 0 mm 3 mps 738 mmHg 58%
19:00 +5°C° 0 mm 3 mps 738 mmHg 58%
20:00 +5°C° 0 mm 3 mps 738 mmHg 59%
21:00 +4°C° 0 mm 3 mps 739 mmHg 60%
22:00 +4°C° 0 mm 3 mps 739 mmHg 58%
23:00 +4°C° 0 mm 3 mps 739 mmHg 57%

Tomorrow, 17 January, Sunday

Time Temperature Precipitation Wind Pressure Humidity
00:00 +4°C° 0 mm 3 mps 739 mmHg 55%
01:00 +4°C° 0 mm 3 mps 738 mmHg 53%
02:00 +4°C° 0 mm 3 mps 738 mmHg 50%
03:00 +4°C° 0 mm 3 mps 737 mmHg 47%
04:00 +5°C° 0 mm 2 mps 737 mmHg 46%
05:00 +5°C° 0 mm 2 mps 737 mmHg 46%
06:00 +5°C° 0 mm 2 mps 737 mmHg 45%
07:00 +7°C° 0 mm 2 mps 738 mmHg 46%
08:00 +8°C° 0 mm 2 mps 738 mmHg 47%
09:00 +10°C° 0 mm 2 mps 738 mmHg 48%
10:00 +13°C° 0 mm 2 mps 738 mmHg 44%
11:00 +15°C° 0 mm 2 mps 738 mmHg 41%
12:00 +17°C° 0 mm 2 mps 738 mmHg 38%
13:00 +17°C° 0 mm 2 mps 737 mmHg 39%
14:00 +17°C° 0 mm 2 mps 737 mmHg 41%
15:00 +17°C° 0 mm 2 mps 736 mmHg 42%
16:00 +14°C° 0 mm 3 mps 736 mmHg 48%
17:00 +12°C° 0 mm 3 mps 737 mmHg 54%
18:00 +10°C° 0 mm 3 mps 737 mmHg 60%
19:00 +10°C° 0 mm 3 mps 737 mmHg 60%
20:00 +9°C° 0 mm 3 mps 737 mmHg 61%
21:00 +9°C° 0 mm 3 mps 737 mmHg 62%
22:00 +9°C° 0 mm 3 mps 737 mmHg 63%
23:00 +8°C° 0 mm 3 mps 737 mmHg 65%

Day after tomorrow, 18 January, Monday

Time Temperature Precipitation Wind Pressure Humidity
00:00 +8°C° 0 mm 3 mps 738 mmHg 66%
01:00 +8°C° 0 mm 2 mps 737 mmHg 68%
02:00 +7°C° 0 mm 2 mps 737 mmHg 70%
03:00 +7°C° 0 mm 2 mps 737 mmHg 72%
04:00 +6°C° 0 mm 2 mps 737 mmHg 74%
05:00 +6°C° 0 mm 2 mps 737 mmHg 76%
06:00 +5°C° 0 mm 2 mps 737 mmHg 78%
07:00 +7°C° 0 mm 2 mps 737 mmHg 73%
08:00 +8°C° 0 mm 2 mps 738 mmHg 69%
09:00 +10°C° 0 mm 1 mps 738 mmHg 65%
10:00 +12°C° 0 mm 1 mps 738 mmHg 61%
11:00 +13°C° 0 mm 1 mps 738 mmHg 58%
12:00 +14°C° 0 mm 1 mps 738 mmHg 54%
13:00 +15°C° 0 mm 1 mps 738 mmHg 54%
14:00 +15°C° 0 mm 2 mps 738 mmHg 55%
15:00 +15°C° 0 mm 2 mps 737 mmHg 56%
16:00 +13°C° 0 mm 2 mps 737 mmHg 65%
17:00 +10°C° 0 mm 2 mps 737 mmHg 74%
18:00 +8°C° 0 mm 2 mps 737 mmHg 83%
19:00 +8°C° 0 mm 2 mps 738 mmHg 82%
20:00 +8°C° 0 mm 2 mps 738 mmHg 82%
21:00 +8°C° 0 mm 2 mps 738 mmHg 81%
22:00 +7°C° 0 mm 2 mps 738 mmHg 81%
23:00 +7°C° 0 mm 2 mps 738 mmHg 81%

19 January, Tuesday

Time Temperature Precipitation Wind Pressure Humidity
00:00 +7°C° 0 mm 2 mps 738 mmHg 81%
01:00 +8°C° 0 mm 1 mps 737 mmHg 80%
02:00 +7°C° 0 mm 1 mps 737 mmHg 80%
03:00 +7°C° 0 mm 1 mps 737 mmHg 79%
04:00 +7°C° 0 mm 1 mps 736 mmHg 79%
05:00 +7°C° 0 mm 1 mps 736 mmHg 79%
06:00 +7°C° 0 mm 1 mps 736 mmHg 79%
07:00 +8°C° 0 mm 1 mps 736 mmHg 74%
08:00 +10°C° 0 mm 1 mps 736 mmHg 69%
09:00 +10°C° 0 mm 2 mps 737 mmHg 64%
10:00 +13°C° 0 mm 2 mps 736 mmHg 57%
11:00 +14°C° 0 mm 2 mps 736 mmHg 50%
12:00 +16°C° 0 mm 2 mps 736 mmHg 43%
13:00 +16°C° 0 mm 2 mps 735 mmHg 43%
14:00 +16°C° 0 mm 2 mps 735 mmHg 43%
15:00 +17°C° 0 mm 2 mps 734 mmHg 43%
16:00 +15°C° 0 mm 2 mps 734 mmHg 50%
17:00 +13°C° 0 mm 2 mps 734 mmHg 58%
18:00 +10°C° 0 mm 2 mps 734 mmHg 66%
19:00 +9°C° 0 mm 2 mps 734 mmHg 67%
20:00 +9°C° 0 mm 2 mps 734 mmHg 69%
21:00 +8°C° 0 mm 2 mps 733 mmHg 70%
22:00 +8°C° 0 mm 2 mps 733 mmHg 69%
23:00 +8°C° 0 mm 2 mps 733 mmHg 69%

20 January, Wednesday

Time Temperature Precipitation Wind Pressure Humidity
00:00 +7°C° 0 mm 2 mps 732 mmHg 68%
01:00 +7°C° 0 mm 2 mps 732 mmHg 66%
02:00 +7°C° 0 mm 2 mps 731 mmHg 65%
03:00 +7°C° 0 mm 2 mps 731 mmHg 63%
04:00 +7°C° 0 mm 2 mps 730 mmHg 65%
05:00 +7°C° 0 mm 2 mps 730 mmHg 66%
06:00 +6°C° 0 mm 2 mps 730 mmHg 68%
07:00 +7°C° 0 mm 2 mps 729 mmHg 67%
08:00 +8°C° 0 mm 2 mps 729 mmHg 66%
09:00 +9°C° 0 mm 2 mps 729 mmHg 64%
10:00 +12°C° 0 mm 2 mps 729 mmHg 59%
11:00 +13°C° 0 mm 2 mps 729 mmHg 54%
12:00 +14°C° 0 mm 2 mps 728 mmHg 49%
13:00 +14°C° 0 mm 2 mps 728 mmHg 49%
14:00 +14°C° 0 mm 2 mps 727 mmHg 50%
15:00 +14°C° 0 mm 2 mps 727 mmHg 51%
16:00 +13°C° 0 mm 2 mps 727 mmHg 52%
17:00 +11°C° 0 mm 3 mps 726 mmHg 54%
18:00 +10°C° 0 mm 4 mps 726 mmHg 55%
19:00 +10°C° 0 mm 3 mps 726 mmHg 60%
20:00 +9°C° 0 mm 3 mps 727 mmHg 64%
21:00 +9°C° 0 mm 3 mps 727 mmHg 68%
22:00 +9°C° 0 mm 3 mps 727 mmHg 70%
23:00 +8°C° 0 mm 4 mps 728 mmHg 72%

21 January, Thursday

Time Temperature Precipitation Wind Pressure Humidity
00:00 +8°C° 0 mm 4 mps 728 mmHg 73%
01:00 +8°C° 0 mm 4 mps 728 mmHg 75%
02:00 +8°C° 0 mm 5 mps 728 mmHg 77%
03:00 +8°C° 0 mm 5 mps 728 mmHg 79%
04:00 +8°C° 0 mm 5 mps 729 mmHg 79%
05:00 +8°C° 0 mm 5 mps 729 mmHg 79%
06:00 +8°C° 0 mm 5 mps 729 mmHg 79%
07:00 +9°C° 0 mm 5 mps 729 mmHg 76%
08:00 +10°C° 0 mm 5 mps 730 mmHg 74%
09:00 +10°C° 0 mm 5 mps 730 mmHg 71%
10:00 +11°C° 0 mm 6 mps 730 mmHg 65%
11:00 +14°C° 0 mm 7 mps 731 mmHg 60%
12:00 +15°C° 0 mm 7 mps 731 mmHg 54%
13:00 +15°C° 0 mm 7 mps 730 mmHg 54%
14:00 +15°C° 0 mm 7 mps 730 mmHg 54%
15:00 +15°C° 0 mm 7 mps 730 mmHg 53%
16:00 +14°C° 0 mm 6 mps 729 mmHg 58%
17:00 +13°C° 0 mm 5 mps 729 mmHg 63%
18:00 +10°C° 0 mm 5 mps 729 mmHg 67%
19:00 +10°C° 0 mm 5 mps 729 mmHg 67%
20:00 +10°C° 0 mm 5 mps 729 mmHg 68%
21:00 +10°C° 0 mm 5 mps 729 mmHg 68%
22:00 +10°C° 0 mm 5 mps 728 mmHg 69%
23:00 +10°C° 0 mm 5 mps 728 mmHg 70%
Show more